This is the latest recevied weather packets stored in our database for station/object N7MLR. If no packets are shown the sender has not sent any weather packets the latest 10 day(s).
| Time | Temp. | Humidity | Pressure | Rain* | Wind** | Luminosity | Snow |
|---|---|---|---|---|---|---|---|
| 1777938912 | 25.56° C | 66% | 1008.7 hPa | 0 mm | - | 39 W/m² | - |
| 1777938608 | 26.11° C | 66% | 1009 hPa | 0 mm | - | 47 W/m² | - |
| 1777938305 | 26.67° C | 64% | 1009.1 hPa | 0 mm | - | 63 W/m² | - |
| 1777938002 | 26.11° C | 65% | 1009.1 hPa | 0 mm | - | 84 W/m² | - |
| 1777937697 | 26.11° C | 65% | 1009.2 hPa | 0 mm | - | 80 W/m² | - |
| 1777937394 | 26.11° C | 65% | 1008.9 hPa | 0 mm | - | 62 W/m² | - |
| 1777937091 | 26.11° C | 64% | 1009.3 hPa | 0 mm | - | 44 W/m² | - |
| 1777936789 | 26.11° C | 64% | 1009.4 hPa | 0 mm | - | 55 W/m² | - |
| 1777936485 | 26.11° C | 64% | 1009.6 hPa | 0 mm | - | 67 W/m² | - |
| 1777936181 | 26.11° C | 65% | 1009.2 hPa | 0 mm | - | 77 W/m² | - |
| 1777935878 | 26.11° C | 64% | 1009.4 hPa | 0 mm | - | 87 W/m² | - |
| 1777935577 | 26.11° C | 65% | 1009.5 hPa | 0 mm | - | 177 W/m² | - |
| 1777935274 | 26.67° C | 64% | 1009.5 hPa | 0 mm | - | 160 W/m² | - |
| 1777934971 | 26.67° C | 63% | 1009.7 hPa | 0 mm | - | 115 W/m² | - |
| 1777934667 | 26.67° C | 64% | 1009.9 hPa | 0 mm | - | 126 W/m² | - |
| 1777934365 | 26.67° C | 63% | 1009.7 hPa | 0 mm | - | 94 W/m² | - |
| 1777934060 | 26.67° C | 63% | 1009.8 hPa | 0 mm | - | 135 W/m² | - |
| 1777933756 | 26.67° C | 63% | 1009.8 hPa | 0 mm | - | 150 W/m² | - |
| 1777933454 | 26.67° C | 64% | 1010.1 hPa | 0 mm | - | 154 W/m² | - |
| 1777933152 | 26.11° C | 65% | 1010.1 hPa | 0 mm | - | 167 W/m² | - |
| 1777932848 | 26.11° C | 64% | 1010.1 hPa | 0 mm | - | 193 W/m² | - |
| 1777932545 | 26.11° C | 64% | 1010.2 hPa | 0 mm | - | 196 W/m² | - |
| 1777932242 | 26.11° C | 64% | 1010.2 hPa | 0 mm | - | 215 W/m² | - |
| 1777931939 | 26.67° C | 63% | 1010.1 hPa | 0 mm | - | 211 W/m² | - |
| 1777931635 | 26.67° C | 63% | 1009.9 hPa | 0 mm | - | 258 W/m² | - |
* Rain latest hour (hover to see other rain measurements)
** Current wind speed in m/s (hover to see current wind gust speed)